FENGYUN 1C DEB, 35090

Orbit data source: Space-Track

FENGYUN 1C DEB, 35090 is space debris in SSO originally from a launch on Mon, 10 May 1999 UTC launched from the Taiyaun Space Center, China (TSC). Fengyun 1C debris stems from the Chinese weather satellite Fengyun-1C, which was intentionally destroyed by a Chinese anti-satellite missile in 2007. This event dramatically increased the amount of space debris, with thousands of trackable fragments posing hazards to satellites and human spaceflight. The Fengyun 1C debris cloud has become a focal point in discussions about space sustainability and the need for international regulations to prevent the creation of new debris.

Loading next visibility...
Identifier
35090, 1999-025DJS
Orbit
SSO
Country
Flag of CNCN / PRC
Related business
Manufacturer
Unknown
Mission
Spacecraft
Bus & Motor
Unknown
Mass
Unknown
Launch date (UTC)
1999-05-10 (27 years ago)
Launch vehicle
Unknown
Launch site
Taiyaun Space Center, China (TSC)
Object type
Payload
Rocket body
Debris
Shape & HBR
Unknown shape, 0.1 m
Radar Cross Section
Medium (>0.1 m² and <1 m²)

Expand to show TLE details & history
Last TLE update: 3 days ago

TLE from 3 days ago
0 FENGYUN 1C DEB
1 35090U 99025DJS 26205.01195058  .00002193  00000-0  10604-2 0  9994
2 35090  99.1876 230.6362 0057229 103.2870 257.4695 14.18764843694156
Epoch: 2026-07-24T00:17Z
TLE epoch observation values (Epoch: 2026-07-24T00:17:12.530Z)
Latitude
-0.00001°
Longitude
-75.41071°
Altitude
841.606 km
Speed
7.427 km/s
True Right ascension
15h 22m 32s
True Declination
0° 00' 00"
Sunlit
Object was in daylight at epoch
Visualization orbit readout
Latitude
Unknown
Longitude
Unknown
Altitude
Unknown
Speed
Unknown
Apparent Right ascension
Unknown
Apparent Declination
Unknown
Sunlit
N/A
Visualization observer readout
Local Sidereal Time
20:30:22
Azimuth
Unknown
Elevation
Unknown
Doppler factor
Unknown
Orbital elements
Apogee altitude
867.949 km
Perigee altitude
785.484 km
Semi-major axis
7,204.854 km
Eccentricity
0.00572
Inclination
99.1876°
RAAN
230.6362°
Arg. of periapsis
103.287°
True anomaly
256.83033°
Mean anomaly
257.4695°
Eccentric anomaly
257.14981°
Mean motion
3.549 °/min
Orbital period
101.44 mins
BSTAR
0.0010604
Loading maneuver chart data...
Computing Atmospheric mass density...

Documentation

Showing up to 5 results
|